Location: D�derode
(51.8092°N, 10.1065°E)
Time: 00:39:31
(UTC+00:00)

Cosmos 1812 - Pass Details

Date: 23 April 2021
Orbit: 516 x 519 km, 82.5° (Epoch: 10 May)

Event Time Altitude Azimuth Distance (km) Brightness Sun altitude
Exits shadow 21:58:38 16° 66° (ENE) 1,420 4.9 -23.1°
Drops below altitude 10° 22:00:14 10° 43° (NE) 1,765 5.7 -23.2°
Sets 22:02:54 0° 24° (NNE) 2,659 7.0 -23.3°
